KE6LRO Weather Reports


Display with metric or nautical units.
time (UTC)temp
F
wind
direction
speed
MPH
gust
MPH
rain 1hr
in
rain 24hr
in
rain mn
in
humidity
%
barometer
mb
20260903053329 42 10 0.0 0.0 0.00 0.04 0.04 99 1015.6
20260903052825 42 9 0.0 0.0 0.00 0.04 0.04 99 1015.7
20260903052320 43 9 0.0 0.0 0.00 0.04 0.04 99 1015.8
20260903051816 43 8 0.0 0.0 0.00 0.04 0.04 99 1015.7
20260903051311 42 11 0.0 0.0 0.00 0.04 0.04 99 1015.8
20260903050807 43 11 0.0 0.0 0.00 0.04 0.04 99 1015.9
20260903050306 43 11 0.0 0.0 0.00 0.04 0.04 99 1015.8
20260903045801 43 11 0.0 0.0 0.00 0.04 0.04 99 1015.8
20260903045257 43 9 0.0 0.0 0.00 0.04 0.04 99 1016.0
20260903044753 43 15 0.0 0.0 0.00 0.04 0.04 99 1016.1
20260903044248 43 15 0.0 0.0 0.00 0.04 0.04 99 1016.2
20260903043744 44 15 0.0 0.0 0.00 0.04 0.04 99 1015.9
20260903043244 44 15 0.0 0.0 0.00 0.04 0.04 99 1016.2
20260903042743 44 15 0.0 0.0 0.00 0.04 0.04 99 1016.0
20260903042239 44 15 0.0 0.0 0.00 0.04 0.04 99 1016.1
20260903041735 44 15 0.0 0.0 0.00 0.04 0.04 99 1016.1
20260903041231 44 15 0.0 0.0 0.00 0.04 0.04 99 1016.1
20260903040731 44 15 0.0 0.0 0.00 0.04 0.04 98 1016.3
20260903040225 45 15 0.0 0.0 0.00 0.04 0.04 98 1016.1
20260903035721 45 15 0.0 0.0 0.00 0.04 0.04 98 1016.2
20260903035217 45 15 0.0 0.0 0.00 0.04 0.04 98 1016.0
20260903034716 46 15 0.0 0.0 0.00 0.04 0.04 98 1016.3
20260903034212 46 15 0.0 0.0 0.00 0.04 0.04 98 1016.0
20260903033708 46 15 0.0 0.0 0.00 0.04 0.04 98 1016.2
20260903033208 46 15 0.0 0.0 0.00 0.04 0.04 98 1016.2
20260903032702 46 15 0.0 0.0 0.00 0.04 0.04 97 1016.1
20260903032158 47 15 0.0 0.0 0.00 0.04 0.04 97 1015.9
20260903031654 47 15 0.0 0.0 0.00 0.04 0.04 97 1016.0
20260903031153 47 15 0.0 0.0 0.00 0.04 0.04 97 1015.9
20260903030649 48 14 0.0 0.0 0.00 0.04 0.04 97 1015.9
20260903030145 48 14 0.0 0.0 0.00 0.04 0.04 96 1015.9
20260903025640 48 14 0.0 0.0 0.00 0.04 0.04 95 1015.8
20260903025136 49 14 0.0 0.0 0.00 0.04 0.04 94 1016.0
20260903024631 49 14 0.0 0.0 0.00 0.04 0.04 94 1015.8
20260903024130 50 14 0.0 0.0 0.00 0.04 0.04 94 1015.7
20260903023626 50 14 0.0 0.0 0.00 0.04 0.04 93 1015.8
20260903023125 51 14 0.0 0.0 0.00 0.04 0.04 92 1015.8
20260903022621 51 12 0.0 0.0 0.00 0.04 0.04 92 1015.9
20260903022120 52 12 0.0 0.0 0.00 0.04 0.04 90 1015.8
20260903021619 53 13 0.0 0.0 0.00 0.04 0.04 87 1015.6
20260903021114 53 13 0.0 0.0 0.00 0.04 0.04 86 1015.9
20260903020610 53 10 0.0 0.0 0.00 0.04 0.04 86 1015.7
20260903020110 54 2 0.0 0.0 0.00 0.04 0.04 86 1015.6
20260903015605 55 335 0.0 0.0 0.00 0.04 0.04 84 1015.6
20260903015101 55 283 1.0 2.0 0.00 0.04 0.04 81 1015.7
20260903014600 55 1 1.0 2.0 0.00 0.04 0.04 80 1015.7
20260903014100 56 335 1.0 2.0 0.00 0.04 0.04 81 1015.7
20260903013555 56 323 3.0 3.0 0.00 0.04 0.04 79 1015.8
20260903013050 56 305 1.0 2.0 0.00 0.04 0.04 80 1015.6
20260903012549 56 295 1.0 3.0 0.00 0.04 0.04 79 1015.4
20260903012048 56 332 1.0 1.0 0.00 0.04 0.04 79 1015.6
20260903011549 56 291 1.0 1.0 0.00 0.04 0.04 80 1015.4
20260903011048 56 303 2.0 2.0 0.00 0.04 0.04 79 1015.6
20260903010544 56 307 1.0 1.0 0.00 0.04 0.04 79 1015.9
20260903010042 57 314 1.0 2.0 0.00 0.04 0.04 79 1015.8
20260903005537 58 317 2.0 2.0 0.00 0.04 0.04 75 1015.8
20260903005033 57 354 0.0 1.0 0.00 0.04 0.04 76 1015.9
20260903004533 57 352 1.0 1.0 0.00 0.04 0.04 74 1015.9
20260903004028 57 329 0.0 2.0 0.00 0.04 0.04 74 1016.0
20260903003523 58 317 2.0 6.0 0.00 0.04 0.04 72 1016.0
20260903003019 58 311 3.0 3.0 0.00 0.04 0.04 71 1016.1
20260903002518 58 300 1.0 6.0 0.00 0.04 0.04 73 1016.0
20260903002013 58 321 2.0 3.0 0.00 0.04 0.04 71 1016.0
20260903001508 58 327 4.0 5.0 0.00 0.04 0.04 71 1015.9
20260903001007 59 304 1.0 2.0 0.00 0.04 0.04 74 1016.2
20260903000503 60 325 1.0 1.0 0.00 0.04 0.04 73 1016.2
20260903000000 61 314 1.0 2.0 0.00 0.04 0.04 66 1016.1
20260902235455 62 306 1.0 2.0 0.00 0.04 0.04 64 1016.2
20260902234950 62 285 1.0 2.0 0.00 0.04 0.04 60 1016.3
20260902234445 62 272 0.0 1.0 0.00 0.04 0.04 62 1016.2
20260902233944 61 275 2.0 2.0 0.00 0.04 0.04 62 1016.2
20260902233438 61 258 0.0 3.0 0.00 0.04 0.04 62 1016.2
20260902232938 61 138 1.0 1.0 0.00 0.04 0.04 65 1016.3
20260902232433 61 218 2.0 3.0 0.00 0.04 0.04 65 1016.3
20260902231933 60 263 1.0 2.0 0.00 0.04 0.04 65 1016.4
20260902231427 59 239 2.0 2.0 0.00 0.04 0.04 67 1016.3
20260902230922 59 273 2.0 3.0 0.00 0.04 0.04 69 1016.2
20260902230421 59 218 2.0 2.0 0.00 0.04 0.04 71 1016.4
20260902225916 58 173 2.0 3.0 0.00 0.04 0.04 71 1016.7
20260902225411 57 67 0.0 1.0 0.00 0.04 0.04 74 1016.8
20260902224910 57 273 1.0 2.0 0.00 0.04 0.04 76 1016.9
20260902224410 56 172 2.0 2.0 0.00 0.04 0.04 76 1017.0
20260902223907 57 196 2.0 3.0 0.00 0.04 0.04 78 1017.0
20260902223407 56 239 1.0 2.0 0.00 0.04 0.04 78 1016.9
20260902222901 56 256 0.0 2.0 0.00 0.04 0.04 80 1017.2
20260902222359 56 246 2.0 3.0 0.00 0.04 0.04 81 1017.3
20260902221859 55 181 0.0 2.0 0.00 0.04 0.04 81 1017.6
20260902221359 55 246 1.0 3.0 0.00 0.04 0.04 81 1017.6
20260902220854 55 219 2.0 2.0 0.00 0.04 0.04 81 1017.3
20260902220354 55 140 1.0 2.0 0.00 0.04 0.04 83 1017.3
20260902215850 55 237 1.0 2.0 0.00 0.04 0.04 85 1017.7
20260902215350 54 268 2.0 5.0 0.00 0.04 0.04 84 1017.2
20260902214846 54 215 1.0 3.0 0.00 0.04 0.04 86 1017.2
20260902214345 54 238 1.0 3.0 0.00 0.04 0.04 86 1017.4
20260902213839 54 239 0.0 2.0 0.00 0.04 0.04 86 1017.2
20260902213336 54 69 0.0 0.0 0.00 0.04 0.04 82 1017.2
20260902212834 54 92 0.0 0.0 0.00 0.04 0.04 85 1017.0
20260902212331 54 148 1.0 1.0 0.00 0.04 0.04 83 1017.1
20260902211827 53 62 0.0 0.0 0.00 0.04 0.04 86 1016.8
20260902211322 53 44 0.0 0.0 0.00 0.04 0.04 89 1016.8
20260902210818 53 43 0.0 1.0 0.00 0.04 0.04 91 1016.9
20260902210317 53 50 0.0 1.0 0.00 0.04 0.04 91 1017.0
20260902205815 53 104 0.0 2.0 0.00 0.04 0.04 92 1017.2
20260902205316 52 82 0.0 1.0 0.00 0.04 0.04 93 1017.3
20260902204811 52 163 0.0 2.0 0.00 0.04 0.04 92 1017.8
20260902204306 52 217 0.0 1.0 0.00 0.04 0.04 95 1018.1
20260902203801 52 181 0.0 0.0 0.00 0.04 0.04 96 1018.1
20260902203256 52 129 0.0 1.0 0.00 0.04 0.04 96 1018.2
20260902202751 52 44 0.0 0.0 0.00 0.04 0.04 95 1018.1
20260902202248 52 44 0.0 0.0 0.00 0.04 0.04 95 1018.5
20260902201744 51 44 1.0 2.0 0.00 0.04 0.04 94 1018.3
20260902201243 51 81 0.0 1.0 0.00 0.04 0.04 94 1018.1
20260902200738 51 188 0.0 0.0 0.00 0.04 0.04 94 1018.3
20260902200234 51 256 1.0 2.0 0.00 0.04 0.04 94 1018.5
20260902195729 52 119 0.0 2.0 0.00 0.04 0.04 91 1018.1
20260902195228 51 178 4.0 5.0 0.00 0.04 0.04 92 1018.3
20260902194728 51 203 1.0 2.0 0.05 0.04 0.04 93 1018.5
20260902194223 51 70 0.0 1.0 0.05 0.04 0.04 92 1018.2
20260902193719 52 86 0.0 2.0 0.07 0.03 0.03 93 1018.5
20260902193214 53 35 0.0 3.0 0.07 0.03 0.03 92 1018.7
20260902192712 53 250 2.0 2.0 0.05 0.02 0.02 90 1019.2
20260902192206 54 63 0.0 1.0 0.00 0.01 0.01 84 1019.5
20260902191701 54 60 0.0 1.0 0.00 0.01 0.01 79 1018.8
20260902191201 55 177 1.0 2.0 0.00 0.01 0.01 79 1018.9
20260902190656 54 168 3.0 10.0 0.00 0.01 0.01 83 1018.9
20260902190151 54 122 3.0 5.0 0.00 0.01 0.01 83 1018.5
20260902185647 54 130 1.0 3.0 0.07 0.01 0.01 81 1018.2
20260902185143 55 135 3.0 5.0 0.00 0.00 0.00 79 1018.3
20260902184643 57 194 2.0 3.0 0.00 0.00 0.00 76 1018.1
20260902184139 57 65 1.0 7.0 0.00 0.00 0.00 70 1017.6
20260902183635 58 159 3.0 3.0 0.00 0.00 0.00 75 1018.2
20260902183131 58 232 2.0 2.0 0.00 0.00 0.00 71 1018.0
20260902182627 59 175 6.0 7.0 0.00 0.00 0.00 70 1017.8
20260902182123 59 190 1.0 2.0 0.00 0.00 0.00 72 1017.6
20260902181619 59 202 1.0 2.0 0.00 0.00 0.00 70 1017.1
20260902181119 60 196 1.0 2.0 0.00 0.00 0.00 71 1017.2
20260902180618 60 138 0.0 5.0 0.00 0.00 0.00 71 1016.7
20260902180115 60 193 4.0 6.0 0.00 0.00 0.00 70 1016.8
20260902175614 60 147 2.0 7.0 0.00 0.00 0.00 71 1016.6
20260902175110 60 193 0.0 0.0 0.00 0.00 0.00 73 1016.6
20260902174606 60 193 0.0 1.0 0.00 0.00 0.00 72 1016.2
20260902174102 61 255 2.0 2.0 0.00 0.00 0.00 72 1016.3
20260902173601 61 299 0.0 1.0 0.00 0.00 0.00 74 1015.9
20260902173057 60 48 0.0 2.0 0.00 0.00 0.00 86 1015.7
20260902172550 58 156 2.0 2.0 0.00 0.00 0.00 86 1015.9
20260902172045 58 149 0.0 1.0 0.00 0.00 0.00 88 1015.8
20260902171541 58 162 1.0 1.0 0.00 0.00 0.00 91 1015.6
20260902171037 58 146 2.0 3.0 0.00 0.00 0.00 87 1015.8
20260902170532 58 211 2.0 5.0 0.00 0.00 0.00 89 1015.4
20260902170028 58 168 3.0 5.0 0.00 0.00 0.00 90 1015.4
20260902165528 59 151 1.0 3.0 0.00 0.00 0.00 92 1015.6
20260902165027 58 126 2.0 2.0 0.00 0.00 0.00 90 1015.1
20260902164522 58 153 2.0 5.0 0.00 0.00 0.00 93 1015.2
20260902164021 58 142 1.0 1.0 0.00 0.00 0.00 90 1014.9
20260902163517 58 169 0.0 1.0 0.00 0.00 0.00 88 1014.8
20260902163015 58 201 0.0 3.0 0.00 0.00 0.00 88 1014.9
20260902162510 58 238 1.0 3.0 0.00 0.00 0.00 88 1014.7
20260902162005 58 284 1.0 3.0 0.00 0.00 0.00 90 1014.8
20260902161500 58 142 0.0 2.0 0.00 0.00 0.00 91 1014.9
20260902160955 57 199 1.0 1.0 0.00 0.00 0.00 91 1015.2
20260902160451 57 225 1.0 2.0 0.00 0.00 0.00 91 1015.1
20260902155948 56 118 1.0 2.0 0.00 0.00 0.00 92 1015.2
20260902155444 56 72 0.0 1.0 0.00 0.00 0.00 93 1015.0
20260902154938 55 183 1.0 1.0 0.00 0.00 0.00 94 1014.9
20260902154433 54 122 1.0 1.0 0.00 0.00 0.00 94 1014.8
20260902153933 52 119 1.0 2.0 0.00 0.00 0.00 97 1014.8
20260902153431 52 106 2.0 2.0 0.00 0.00 0.00 99 1014.7
20260902152927 51 49 0.0 0.0 0.00 0.00 0.00 99 1014.6
20260902152423 51 355 0.0 1.0 0.00 0.00 0.00 99 1014.6
20260902151919 50 324 1.0 2.0 0.00 0.00 0.00 99 1014.3
20260902151415 50 4 1.0 2.0 0.00 0.00 0.00 99 1014.3
20260902150908 50 331 3.0 5.0 0.00 0.00 0.00 99 1014.6
20260902150405 50 23 0.0 1.0 0.00 0.00 0.00 99 1014.4
20260902145904 50 27 1.0 1.0 0.00 0.00 0.00 99 1014.8
20260902145359 50 59 0.0 1.0 0.00 0.00 0.00 99 1014.4
20260902144854 50 112 0.0 0.0 0.00 0.00 0.00 99 1014.6
20260902144351 50 113 0.0 0.0 0.00 0.00 0.00 99 1014.7
20260902143845 49 189 0.0 0.0 0.00 0.00 0.00 99 1014.6
20260902143340 49 190 0.0 0.0 0.00 0.00 0.00 99 1014.7
20260902142836 49 85 0.0 0.0 0.00 0.00 0.00 99 1014.8
20260902142332 48 118 0.0 0.0 0.00 0.00 0.00 99 1014.7
20260902141832 48 133 0.0 1.0 0.00 0.00 0.00 99 1014.6
20260902141327 48 187 0.0 2.0 0.00 0.00 0.00 99 1014.6
20260902140827 49 173 0.0 0.0 0.00 0.00 0.00 99 1014.6
20260902140322 49 183 2.0 2.0 0.00 0.00 0.00 99 1014.7
20260902135821 49 138 0.0 1.0 0.00 0.00 0.00 99 1014.7
20260902135318 49 157 0.0 1.0 0.00 0.00 0.00 99 1014.8
20260902134816 49 151 0.0 0.0 0.00 0.00 0.00 99 1014.8
20260902134312 49 126 0.0 0.0 0.00 0.00 0.00 99 1014.7
20260902133807 49 125 0.0 0.0 0.00 0.00 0.00 99 1014.8
20260902133307 49 124 0.0 0.0 0.00 0.00 0.00 99 1014.9
20260902131753 48 63 0.0 0.0 0.00 0.00 0.00 99 1014.7
20260902131249 48 63 0.0 0.0 0.00 0.00 0.00 99 1014.7
20260902130749 48 63 0.0 0.0 0.00 0.00 0.00 99 1014.8
20260902130245 48 188 0.0 0.0 0.00 0.00 0.00 99 1014.9
20260902125740 48 189 0.0 0.0 0.00 0.00 0.00 99 1015.0
20260902125236 48 189 0.0 0.0 0.00 0.00 0.00 99 1014.8
20260902124732 49 185 0.0 0.0 0.00 0.00 0.00 99 1014.9
20260902124227 49 188 0.0 0.0 0.00 0.00 0.00 99 1014.8
20260902123722 49 154 0.0 0.0 0.00 0.00 0.00 99 1014.8
20260902123218 49 103 0.0 0.0 0.00 0.00 0.00 99 1014.9
20260902122717 49 105 1.0 2.0 0.00 0.00 0.00 99 1014.8
20260902122214 49 137 1.0 1.0 0.00 0.00 0.00 99 1015.0
20260902121713 49 109 0.0 0.0 0.00 0.00 0.00 99 1015.1
20260902121208 49 107 0.0 0.0 0.00 0.00 0.00 99 1015.2
20260902120704 50 107 0.0 0.0 0.00 0.00 0.00 99 1015.2
20260902120201 50 108 0.0 0.0 0.00 0.00 0.00 99 1015.3
20260902115700 50 108 0.0 0.0 0.00 0.00 0.00 99 1015.3
20260902115156 50 207 0.0 0.0 0.00 0.00 0.00 99 1015.4
20260902114652 50 207 0.0 0.0 0.00 0.00 0.00 99 1015.4
20260902114147 50 194 0.0 2.0 0.00 0.00 0.00 99 1015.7
20260902113643 50 96 0.0 0.0 0.00 0.00 0.00 99 1015.8
20260902113137 50 17 0.0 0.0 0.00 0.00 0.00 99 1015.8
20260902112632 50 223 0.0 0.0 0.00 0.00 0.00 99 1016.0
20260902112130 50 82 0.0 0.0 0.00 0.00 0.00 99 1016.1
20260902111625 50 229 0.0 1.0 0.00 0.00 0.00 99 1016.0
20260902111121 50 303 3.0 3.0 0.00 0.00 0.00 99 1015.8
20260902110616 50 92 1.0 1.0 0.00 0.00 0.00 99 1016.1
20260902110112 50 51 0.0 2.0 0.00 0.00 0.00 99 1016.1
20260902105606 50 28 0.0 0.0 0.00 0.00 0.00 99 1015.8
20260902105101 50 298 0.0 0.0 0.00 0.00 0.00 99 1015.6
20260902104557 50 217 0.0 0.0 0.00 0.00 0.00 99 1015.9
20260902104056 50 147 0.0 1.0 0.00 0.00 0.00 99 1016.3
20260902103551 50 139 0.0 0.0 0.00 0.00 0.00 99 1016.4
20260902103046 50 188 0.0 0.0 0.00 0.00 0.00 99 1016.3
20260902102543 50 187 0.0 0.0 0.00 0.00 0.00 99 1016.6
20260902102040 49 233 0.0 0.0 0.00 0.00 0.00 99 1016.6
20260902101535 49 76 0.0 0.0 0.00 0.00 0.00 99 1016.4
20260902101034 49 22 0.0 0.0 0.00 0.00 0.00 99 1016.6
20260902100534 49 22 0.0 0.0 0.00 0.00 0.00 99 1016.7
20260902100034 49 22 0.0 0.0 0.00 0.00 0.00 99 1016.4
20260902095533 49 23 0.0 0.0 0.00 0.00 0.00 99 1016.7
20260902095032 49 23 0.0 0.0 0.00 0.00 0.00 99 1016.4
20260902094528 49 22 0.0 0.0 0.00 0.00 0.00 99 1016.6
20260902094024 50 20 0.0 0.0 0.00 0.00 0.00 99 1016.6
20260902093519 50 20 0.0 0.0 0.00 0.00 0.00 99 1016.8
20260902093018 50 23 0.0 0.0 0.00 0.00 0.00 99 1016.8
20260902092513 50 23 0.0 0.0 0.00 0.00 0.00 99 1016.9
20260902092008 50 22 0.0 0.0 0.00 0.00 0.00 99 1016.8
20260902091504 50 23 0.0 0.0 0.00 0.00 0.00 99 1016.9
20260902090959 50 23 0.0 0.0 0.00 0.00 0.00 99 1016.9
20260902090455 51 22 0.0 0.0 0.00 0.00 0.00 99 1016.9
20260902085954 51 21 0.0 0.0 0.00 0.00 0.00 99 1017.0
20260902085449 51 20 0.0 0.0 0.00 0.00 0.00 99 1017.0
20260902084944 51 111 0.0 0.0 0.00 0.00 0.00 99 1016.8
20260902084441 51 113 0.0 0.0 0.00 0.00 0.00 99 1016.9
20260902083937 51 112 0.0 0.0 0.00 0.00 0.00 99 1016.9
20260902083436 51 104 0.0 0.0 0.00 0.00 0.00 99 1017.0
20260902082931 51 100 1.0 3.0 0.00 0.00 0.00 99 1016.9
20260902082427 51 149 1.0 2.0 0.00 0.00 0.00 99 1017.0
20260902081924 51 125 0.0 0.0 0.00 0.00 0.00 99 1017.1
20260902081420 51 332 0.0 0.0 0.00 0.00 0.00 99 1017.1
20260902080920 51 332 0.0 0.0 0.00 0.00 0.00 99 1017.0
20260902080416 51 333 0.0 0.0 0.00 0.00 0.00 99 1017.2
20260902075915 51 333 0.0 0.0 0.00 0.00 0.00 99 1016.9
20260902075412 52 333 0.0 0.0 0.00 0.00 0.00 99 1017.1
20260902074907 52 332 0.0 0.0 0.00 0.00 0.00 99 1017.0
20260902074403 52 332 0.0 0.0 0.00 0.00 0.00 99 1017.0
20260902073857 52 334 0.0 0.0 0.00 0.00 0.00 99 1017.3
20260902073353 52 332 0.0 0.0 0.00 0.00 0.00 99 1017.6
20260902072849 52 332 0.0 0.0 0.00 0.00 0.00 99 1017.6
20260902072344 52 335 0.0 0.0 0.00 0.00 0.00 99 1017.4
20260902071841 52 332 0.0 0.0 0.00 0.00 0.00 99 1017.3
20260902071340 52 332 0.0 0.0 0.00 0.00 0.00 99 1017.7
20260902070838 52 64 0.0 0.0 0.00 0.00 0.00 99 1017.6
20260902070338 52 64 0.0 0.0 0.00 0.00 0.00 99 1017.4
20260902065836 53 64 0.0 0.0 0.00 0.00 0.00 99 1017.4
20260902065332 53 314 0.0 1.0 0.00 0.00 0.00 99 1017.7
20260902064827 53 330 1.0 2.0 0.00 0.00 0.00 99 1017.7
20260902064323 53 350 1.0 2.0 0.00 0.00 0.00 99 1017.7
20260902063818 53 38 0.0 1.0 0.00 0.00 0.00 99 1017.8
20260902063312 53 331 0.0 2.0 0.00 0.00 0.00 99 1017.8
20260902062807 53 22 0.0 1.0 0.00 0.00 0.00 99 1017.7
20260902062305 53 95 0.0 1.0 0.00 0.00 0.00 99 1018.0
20260902061801 53 107 0.0 0.0 0.00 0.00 0.00 99 1018.1
20260902061256 54 117 0.0 1.0 0.00 0.00 0.00 99 1018.0
20260902060754 54 98 0.0 1.0 0.00 0.00 0.00 99 1017.9
20260902060248 53 220 0.0 0.0 0.00 0.00 0.00 99 1017.9
20260902055744 54 209 0.0 0.0 0.00 0.10 0.10 99 1018.1
20260902055241 54 170 1.0 2.0 0.00 0.10 0.10 99 1018.1
20260902054741 54 161 0.0 0.0 0.00 0.10 0.10 99 1018.1
20260902054236 54 164 0.0 1.0 0.00 0.10 0.10 99 1017.9
20260902053732 54 136 0.0 0.0 0.00 0.10 0.10 99 1018.1